Showing default

GONETS M 12 (M22), 40553

Orbit data source: Space-Track

GONETS M 12 (M22), 40553 is a payload satellite owned by Gonets (CIS) in LEO that was launched on Tue, 31 Mar 2015 UTC via an ROKOT launch vehicle from the Plesetsk Missile And Space Complex (PKMTR). Payload-class satellites include a variety of spacecraft equipped with specific instruments for various scientific and technological missions. These include communications satellites like Starlink; space stations such as the ISS; scientific satellites like the Hubble; Earth observation satellites from companies like Planet Labs, Umbra, and HawkEye 360; GPS; miniature CubeSats for education and research; and military/defense satellites.

Loading next visibility...
Identifier
40553, 2015-020B
Orbit
LEO
Country
Flag of CISCIS
Related business
Manufacturer
Resehetnev ISS
Mission
Operational Commercial Communications
Bus & Motor
STRELA-3M, Unknown motor
Mass
225 kg wet, 225 kg dry
Launch date (UTC)
2015-03-31 (11 years ago)
Launch vehicle
ROKOT
Launch site
Plesetsk Missile And Space Complex (PKMTR)
Object type
Payload
Rocket body
Debris
Shape & HBR
Cyl + 1 Ant, 3.5 m
Radar Cross Section
1.798 m², Large (>1 m²)

Expand to show TLE details & history
Last TLE update: 8 hours ago

TLE from 8 hours ago
0 GONETS M 12 (M22)
1 40553U 15020B   25309.28067612  .00000049  00000-0  28073-3 0  9992
2 40553  82.4902 171.5630 0015312 113.1733 247.0962 12.42862446480919
Epoch: 2025-11-05T06:44Z
TLE epoch observation values (Epoch: 2025-11-05T06:44:10.416Z)
Latitude
0.00002°
Longitude
25.764°
Altitude
1,501.9 km
Speed
7.111 km/s
True Right ascension
11h 26m 15s
True Declination
0° 00' 00"
Sunlit
Object was in daylight at epoch
Visualization orbit readout
Latitude
Unknown
Longitude
Unknown
Altitude
Unknown
Speed
Unknown
Apparent Right ascension
Unknown
Apparent Declination
Unknown
Sunlit
N/A
Visualization observer readout
Local Sidereal Time
11:09:52
Azimuth
Unknown
Elevation
Unknown
Doppler factor
Unknown
Orbital elements
Apogee altitude
1,503.894 km
Perigee altitude
1,479.793 km
Semi-major axis
7,869.981 km
Eccentricity
0.00153
Inclination
82.4902°
RAAN
171.563°
Arg. of periapsis
113.1733°
True anomaly
246.93469°
Mean anomaly
247.0962°
Eccentric anomaly
247.01543°
Mean motion
3.10873 °/min
Orbital period
115.8 mins
BSTAR
0.00028073
Loading maneuver chart data...
Computing Atmospheric mass density...
Loading historical data...
Loading historical data...
Loading historical data...
Loading historical data...
Loading historical data...
Loading historical data...
Loading historical data...

Documentation

Showing up to 5 results
|